Latrobe, PA

6:34 AM EST on November 20, 2019 (GMT -0500)
Arnold Palmer Regional

Weather History for KLBE - October, 2019

Change the Weather History Date:

Tuesday, October 22, 2019

  Actual Average Record
Temperature  
Mean Temperature 55 °F -  
Max Temperature 62 °F 58 °F 75 °F (2007)
Min Temperature 48 °F 39 °F 28 °F (2018)
Degree Days  
Heating Degree Days 10    
Growing Degree Days 5 (Base 50)    
Moisture  
Dew Point 53 °F    
Average Humidity 84    
Maximum Humidity 100    
Minimum Humidity 68    
Precipitation  
Precipitation 0.00 in - - ()
Sea Level Pressure  
Sea Level Pressure 29.84 in    
Wind  
Wind Speed 5 mph (South)    
Max Wind Speed 17 mph    
Max Gust Speed 15 mph    
Visibility 9 miles    
Events Rain    
Averages and records for this station are not official NWS values.
T = Trace of Precipitation, MM = Missing Value Source: NWS Daily Summary

Daily Weather History Graph

Daily Weather History Graph

Search for Another Location

Airport or City:

Astronomy

Oct. 22, 2019 Rise Set
Actual Time 7:35 AM EDT 6:27 PM EDT
Civil Twilight 7:07 AM EDT 6:55 PM EDT
Nautical Twilight 6:36 AM EDT 7:27 PM EDT
Astronomical Twilight 6:04 AM EDT 7:58 PM EDT
Moon 12:42 AM EDT (10/22) 3:36 PM EDT (10/22)
Length of Visible Light 11h 47m
Length of Day
10h 52m
Last Quarter, 37% of the Moon is Illuminated
Oct 22
Last Quarter
Oct 27
New
Nov 4
First Quarter
Nov 12
Full
Nov 19
Last Quarter

Hourly Weather History & Observations

Time (EDT) Temp. Dew Point Humidity Pressure Visibility Wind Dir Wind Speed Gust Speed Precip Events Conditions
12:15 AM 60.8 °F 51.8 °F 72% 29.89 in 10.0 mi Calm Calm - N/A   Mostly Cloudy
12:35 AM 60.8 °F 51.8 °F 72% 29.90 in 10.0 mi SE 6.9 mph - N/A   Mostly Cloudy
12:55 AM 62.6 °F 51.8 °F 68% 29.89 in 10.0 mi SE 8.1 mph - N/A   Mostly Cloudy
1:15 AM 62.6 °F 51.8 °F 68% 29.88 in 10.0 mi ESE 8.1 mph - N/A   Scattered Clouds
1:35 AM 62.6 °F 51.8 °F 68% 29.86 in 10.0 mi SE 8.1 mph - N/A   Clear
1:55 AM 62.6 °F 51.8 °F 68% 29.87 in 10.0 mi Calm Calm - N/A   Clear
2:15 AM 62.6 °F 51.8 °F 68% 29.86 in 10.0 mi SE 9.2 mph - N/A   Clear
2:35 AM 62.6 °F 51.8 °F 68% 29.85 in 10.0 mi SE 8.1 mph - N/A   Clear
2:55 AM 62.6 °F 51.8 °F 68% 29.85 in 10.0 mi Calm Calm - N/A   Clear
3:15 AM 62.6 °F 53.6 °F 72% 29.84 in 10.0 mi SE 6.9 mph - N/A   Clear
3:35 AM 62.6 °F 53.6 °F 72% 29.83 in 10.0 mi Variable 4.6 mph 11.5 mph N/A   Clear
3:55 AM 60.8 °F 53.6 °F 77% 29.82 in 10.0 mi Calm Calm - N/A   Partly Cloudy
4:15 AM 60.8 °F 53.6 °F 77% 29.82 in 10.0 mi SE 6.9 mph 13.8 mph N/A   Mostly Cloudy
4:35 AM 60.8 °F 53.6 °F 77% 29.81 in 10.0 mi Variable 5.8 mph 15.0 mph N/A   Mostly Cloudy
4:55 AM 60.8 °F 53.6 °F 77% 29.82 in 10.0 mi Variable 4.6 mph - N/A   Mostly Cloudy
5:15 AM 60.8 °F 53.6 °F 77% 29.82 in 10.0 mi East 9.2 mph - N/A   Mostly Cloudy
5:35 AM 60.8 °F 53.6 °F 77% 29.83 in 10.0 mi Calm Calm - N/A   Overcast
5:55 AM 60.8 °F 55.4 °F 82% 29.83 in 10.0 mi SE 6.9 mph - N/A   Overcast
6:53 AM 60.8 °F 55.4 °F 82% 29.82 in 10.0 mi Calm Calm - N/A   Mostly Cloudy
7:53 AM 59.0 °F 55.4 °F 88% 29.80 in 10.0 mi Calm Calm - N/A   Mostly Cloudy
8:53 AM 60.8 °F 55.4 °F 82% 29.78 in 10.0 mi SSE 11.5 mph - N/A   Mostly Cloudy
9:53 AM 60.8 °F 57.2 °F 88% 29.83 in 4.0 mi WSW 17.3 mph - N/A Rain Rain
10:53 AM 57.2 °F 57.2 °F 100% 29.85 in 2.0 mi Calm Calm - N/A Rain Rain
11:47 AM 57.2 °F 57.2 °F 100% 29.85 in 2.5 mi Variable 5.8 mph - N/A Rain Light Rain
12:47 PM 55.4 °F 55.4 °F 100% 29.83 in 2.0 mi Calm Calm - N/A Rain Light Rain
1:47 PM 57.2 °F 57.2 °F 100% 29.81 in 4.0 mi Calm Calm - N/A   Overcast
2:47 PM 55.4 °F 55.4 °F 100% 29.80 in 10.0 mi South 9.2 mph - N/A   Overcast
3:55 PM 57.2 °F 57.2 °F 100% 29.78 in 10.0 mi SW 6.9 mph - N/A   Mostly Cloudy
4:45 PM 59.0 °F 57.2 °F 94% 29.79 in 10.0 mi SW 12.7 mph - N/A   Scattered Clouds
5:45 PM 59.0 °F 53.6 °F 82% 29.80 in 10.0 mi SSW 9.2 mph - N/A   Partly Cloudy
6:45 PM 55.4 °F 51.8 °F 88% 29.83 in 10.0 mi South 5.8 mph - N/A   Partly Cloudy
7:50 PM 55.4 °F 50.0 °F 82% 29.84 in 10.0 mi SSW 5.8 mph - N/A   Unknown
8:50 PM 50.0 °F 48.2 °F 94% 29.85 in 10.0 mi SSW 6.9 mph - N/A   Clear
9:50 PM 50.0 °F 50.0 °F 100% 29.86 in 10.0 mi SW 6.9 mph - N/A   Clear
10:15 PM 51.8 °F 50.0 °F 94% 29.88 in 10.0 mi SW 5.8 mph - N/A   Unknown
10:35 PM 50.0 °F 48.2 °F 94% 29.88 in 10.0 mi SSW 6.9 mph - N/A   Clear
10:55 PM 50.0 °F 50.0 °F 100% 29.89 in 10.0 mi SSW 6.9 mph - N/A   Clear
11:15 PM 50.0 °F 50.0 °F 100% 29.89 in 10.0 mi SSW 5.8 mph - N/A   Partly Cloudy
11:35 PM 48.2 °F 48.2 °F 100% 29.89 in 10.0 mi SSW 6.9 mph - N/A   Clear
11:55 PM 48.2 °F 48.2 °F 100% 29.89 in 10.0 mi SSW 8.1 mph - N/A   Mostly Cloudy